Latest Coastal Weather Observations for Cape Wessel

IDD60701

Issued at 3:51 am CST Monday 5 December 2016 (issued every 10 minutes, with the page automatically refreshed every 10 minutes)

About coastal observations | Map of coastal stations | Coastal observations for NT | Marine services | Other Formats
Station Details ID: 200786 Name: CAPE WESSEL Lat: -11.00 Lon: 136.76 Height: 18.0 m
Data from the previous 72 hours. | See also: Recent months at Cape Wessel
Date/Time
CST
Temp
°C
Wind Pressure Rain since
9am
mm
Weather Cloud Vis
km
Sea
Height
m
Swell
Dir  Spd
kts
Gust
kts
hPa Trend Height
m
Period
s
Dir
05/03:30am 27.2 E 7 10 1007.7 - 0.0 - - - - - - -
05/03:00am 27.4 E 8 11 1007.8 - 0.0 - - - - - - -
05/02:30am 27.6 E 9 11 1008.1 - 0.0 - - - - - - -
05/02:00am 27.7 E 10 12 1008.2 - 0.0 - - - - - - -
05/01:30am 27.9 E 10 13 1008.4 - 0.0 - - - - - - -
05/01:00am 28.0 E 10 13 1008.4 - 0.0 - - - - - - -
05/12:30am 28.2 E 11 13 1008.8 - 0.0 - - - - - - -
05/12:00am 28.3 E 11 13 1009.0 - 0.0 - - - - - - -
 
Date/Time
CST
Temp
°C
Wind Pressure Rain since
9am
mm
Weather Cloud Vis
km
Sea
Height
m
Swell
Dir  Spd
kts
Gust
kts
hPa Trend Height
m
Period
s
Dir
04/11:30pm 28.5 E 11 15 1009.3 - 0.0 - - - - - - -
04/11:00pm 28.5 E 11 14 1009.5 - 0.0 - - - - - - -
04/10:30pm 28.7 E 12 14 1009.6 - 0.0 - - - - - - -
04/10:00pm 28.6 ESE 10 13 1009.4 - 0.0 - - - - - - -
04/09:30pm 28.6 ESE 11 14 1009.4 - 0.0 - - - - - - -
04/09:00pm 28.7 ESE 10 13 1009.4 - 0.0 - - - - - - -
04/08:30pm 28.9 ESE 12 14 1009.0 - 0.0 - - - - - - -
04/08:00pm 29.0 ESE 13 16 1008.7 - 0.0 - - - - - - -
04/07:30pm 29.0 SE 13 16 1008.4 - 0.0 - - - - - - -
04/07:00pm 29.1 ESE 12 14 1008.1 - 0.0 - - - - - - -
04/06:30pm 29.3 ESE 11 14 1007.9 - 0.0 - - - - - - -
04/06:00pm 30.3 ESE 11 14 1007.8 - 0.0 - - - - - - -
04/05:30pm 31.1 ESE 12 16 1007.7 - 0.0 - - - - - - -
04/05:00pm 32.0 ESE 13 16 1007.5 - 0.0 - - - - - - -
04/04:30pm 32.8 ESE 12 15 1007.5 - 0.0 - - - - - - -
04/04:00pm 33.5 SE 12 15 1007.5 - 0.0 - - - - - - -
04/03:30pm 34.0 ESE 13 16 1007.7 - 0.0 - - - - - - -
04/03:00pm 34.0 ESE 13 16 1007.9 - 0.0 - - - - - - -
04/02:30pm 34.6 ESE 14 17 1008.1 - 0.0 - - - - - - -
04/02:00pm 35.4 ESE 13 16 1008.6 - 0.0 - - - - - - -
04/01:30pm 34.6 ESE 14 18 1009.0 - 0.0 - - - - - - -
04/01:00pm 34.5 ESE 13 16 1009.3 - 0.0 - - - - - - -
04/12:30pm 34.6 ESE 14 18 1009.6 - 0.0 - - - - - - -
04/12:00pm 35.2 ESE 14 18 1009.9 - 0.0 - - - - - - -
04/11:30am 33.9 ESE 14 17 1010.1 - 0.0 - - - - - - -
04/11:00am 34.0 ESE 14 18 1010.2 - 0.0 - - - - - - -
04/10:30am 34.1 ESE 14 18 1010.6 - 0.0 - - - - - - -
04/10:00am 33.0 ESE 13 17 1010.8 - 0.0 - - - - - - -
04/09:30am 33.8 ESE 12 15 1010.8 - 0.0 - - - - - - -
04/09:00am 32.6 E 12 15 1010.9 - - - - - - - - -
04/08:30am 32.1 ESE 12 15 1010.8 - - - - - - - - -
04/08:00am 30.7 E 11 14 1010.7 - - - - - - - - -
04/07:30am 30.6 E 11 15 1010.4 - - - - - - - - -
04/07:00am 29.8 E 11 14 1010.2 - - - - - - - - -
04/06:30am 28.9 E 11 15 1009.8 - - - - - - - - -
04/06:00am 28.0 E 11 13 1009.4 - - - - - - - - -
04/05:30am 27.9 ESE 11 15 1009.1 - - - - - - - - -
04/05:00am 28.0 E 10 13 1008.9 - - - - - - - - -
04/04:30am 28.0 E 11 13 1008.6 - - - - - - - - -
04/04:00am 27.8 ESE 11 15 1008.4 - - - - - - - - -
04/03:30am 28.1 E 13 16 1008.3 - - - - - - - - -
04/03:00am 28.0 ESE 11 13 1008.3 - - - - - - - - -
04/02:30am 28.0 ESE 12 15 1008.4 - - - - - - - - -
04/02:00am 28.2 E 11 14 1008.7 - - - - - - - - -
04/01:30am 28.4 ESE 12 15 1009.0 - - - - - - - - -
04/01:00am 28.3 ESE 10 13 1009.5 - - - - - - - - -
04/12:30am 28.3 ESE 10 13 1009.9 - - - - - - - - -
04/12:00am 28.6 SE 10 13 1010.5 - - - - - - - - -
 
Date/Time
CST
Temp
°C
Wind Pressure Rain since
9am
mm
Weather Cloud Vis
km
Sea
Height
m
Swell
Dir  Spd
kts
Gust
kts
hPa Trend Height
m
Period
s
Dir
03/11:30pm 28.5 SE 11 13 1010.7 - - - - - - - - -
03/11:00pm 28.7 ESE 11 14 1010.7 - - - - - - - - -
03/10:30pm 29.0 ESE 13 15 1010.7 - - - - - - - - -
03/10:00pm 29.0 ESE 12 16 1010.4 - - - - - - - - -
03/09:00pm 29.1 ESE 14 17 1009.9 - 0.0 - - - - - - -
03/08:30pm 29.1 ESE 14 17 1009.9 - 0.0 - - - - - - -
03/08:00pm 29.2 ESE 13 16 1009.7 - 0.0 - - - - - - -
03/07:30pm 29.6 ESE 11 15 1009.4 - 0.0 - - - - - - -
03/07:00pm 29.3 ESE 12 15 1009.1 - 0.0 - - - - - - -
03/06:30pm 29.5 ESE 13 16 1008.8 - 0.0 - - - - - - -
03/06:00pm 30.6 ESE 12 14 1008.5 - 0.0 - - - - - - -
03/05:30pm 31.5 ESE 13 16 1008.3 - 0.0 - - - - - - -
03/05:00pm 32.4 ESE 12 16 1008.3 - 0.0 - - - - - - -
03/04:30pm 32.6 ESE 14 18 1008.0 - 0.0 - - - - - - -
03/04:00pm 33.3 ESE 13 16 1008.1 - 0.0 - - - - - - -
03/03:30pm 34.3 E 13 16 1008.2 - 0.0 - - - - - - -
03/03:00pm 34.6 ESE 14 17 1008.5 - 0.0 - - - - - - -
03/02:30pm 35.1 E 15 18 1008.7 - 0.0 - - - - - - -
03/02:00pm 36.0 E 14 18 1009.0 - 0.0 - - - - - - -
03/01:30pm 35.3 E 15 19 1009.3 - 0.0 - - - - - - -
03/01:00pm 35.5 E 15 18 1009.8 - 0.0 - - - - - - -
03/12:30pm 35.4 E 15 19 1010.1 - 0.0 - - - - - - -
03/12:00pm 35.7 ESE 13 17 1010.4 - 0.0 - - - - - - -
03/11:30am 35.3 E 14 17 1010.7 - 0.0 - - - - - - -
03/11:00am 35.3 E 13 17 1010.8 - 0.0 - - - - - - -
03/10:30am 34.2 ESE 13 17 1011.1 - 0.0 - - - - - - -
03/10:00am 33.9 E 12 15 1011.3 - 0.0 - - - - - - -
03/09:30am 33.9 E 11 15 1011.3 - 0.0 - - - - - - -
03/09:00am 33.5 E 11 14 1011.4 - 0.0 - - - - - - -
03/08:30am 32.7 E 11 14 1011.1 - 0.0 - - - - - - -
03/08:00am 32.1 E 10 13 1010.8 - 0.0 - - - - - - -
03/07:30am 30.6 E 11 14 1010.4 - 0.0 - - - - - - -
03/07:00am 29.8 E 11 13 1010.4 - 0.0 - - - - - - -
03/06:30am 28.7 E 10 13 1010.1 - 0.0 - - - - - - -
03/06:00am 28.0 E 10 12 1009.8 - 0.0 - - - - - - -
03/05:30am 27.7 E 8 11 1009.6 - 0.0 - - - - - - -
03/05:00am 27.7 E 9 10 1009.3 - 0.0 - - - - - - -
03/04:30am 27.6 E 9 11 1009.2 - 0.0 - - - - - - -
03/04:00am 27.5 E 9 10 1009.0 - 0.0 - - - - - - -
03/03:30am 26.7 ENE 6 7 1009.0 - 0.0 - - - - - - -
03/03:00am 26.9 ENE 5 7 1009.1 - 0.0 - - - - - - -
03/02:30am 27.5 ENE 7 9 1009.0 - 0.0 - - - - - - -
03/02:00am 27.7 ENE 9 11 1008.9 - 0.0 - - - - - - -
03/01:30am 27.7 E 9 10 1009.1 - 0.0 - - - - - - -
03/01:00am 28.0 E 9 11 1009.6 - 0.0 - - - - - - -
03/12:30am 28.1 E 9 12 1009.9 - 0.0 - - - - - - -
03/12:00am 28.3 E 12 15 1010.1 - 0.0 - - - - - - -
 
Date/Time
CST
Temp
°C
Wind Pressure Rain since
9am
mm
Weather Cloud Vis
km
Sea
Height
m
Swell
Dir  Spd
kts
Gust
kts
hPa Trend Height
m
Period
s
Dir
02/11:30pm 28.4 E 11 14 1010.4 - 0.0 - - - - - - -
02/11:00pm 28.5 E 11 14 1010.3 - 0.0 - - - - - - -
02/10:30pm 28.4 E 11 13 1010.2 - 0.0 - - - - - - -
02/10:00pm 28.5 E 10 11 1010.3 - 0.0 - - - - - - -
02/09:30pm 28.6 E 11 14 1009.8 - 0.0 - - - - - - -
02/09:00pm 28.9 E 11 14 1009.6 - 0.0 - - - - - - -
02/08:30pm 29.0 E 10 13 1009.3 - 0.0 - - - - - - -
02/08:00pm 29.0 E 11 14 1009.1 - 0.0 - - - - - - -
02/07:30pm 29.2 E 11 14 1008.7 - 0.0 - - - - - - -
02/07:00pm 29.2 E 11 14 1008.5 - 0.0 - - - - - - -
02/06:30pm 29.6 E 11 13 1008.4 - 0.0 - - - - - - -
02/06:00pm 30.2 E 11 13 1008.3 - 0.0 - - - - - - -
02/05:30pm 31.5 E 10 13 1008.0 - 0.0 - - - - - - -
02/05:00pm 32.2 E 10 13 1007.9 - 0.0 - - - - - - -
02/04:30pm 32.9 ENE 11 14 1007.7 - 0.0 - - - - - - -
02/04:00pm 34.1 E 10 13 1007.9 - 0.0 - - - - - - -
02/03:30pm 33.6 ENE 11 14 1008.2 - 0.0 - - - - - - -
02/03:00pm 34.4 ENE 12 15 1008.4 - 0.0 - - - - - - -
02/02:30pm 32.5 E 12 16 1008.5 - 0.0 - - - - - - -
02/02:00pm 35.3 ENE 11 14 1009.0 - 0.0 - - - - - - -
02/01:30pm 35.4 ENE 11 15 1009.4 - 0.0 - - - - - - -
02/01:00pm 35.0 ENE 9 12 1009.7 - 0.0 - - - - - - -
02/12:30pm 34.1 ENE 7 9 1010.0 - 0.0 - - - - - - -
02/12:00pm 35.0 NE 7 9 1010.3 - 0.0 - - - - - - -
02/11:30am 34.5 ENE 7 9 1010.7 - 0.0 - - - - - - -
02/11:00am 34.0 NE 7 9 1010.9 - 0.0 - - - - - - -
02/10:30am 34.2 NE 7 9 1011.1 - 0.0 - - - - - - -
02/10:00am 33.5 NE 7 8 1011.2 - 0.0 - - - - - - -
02/09:30am 33.0 ENE 7 8 1011.3 - 0.0 - - - - - - -
02/09:00am 32.8 ENE 6 8 1010.9 - 0.0 - - - - - - -
02/08:30am 32.0 ENE 7 8 1010.8 - 0.0 - - - - - - -
02/08:00am 32.1 ENE 8 11 1010.4 - 0.0 - - - - - - -
02/07:30am 31.3 E 8 11 1010.3 - 0.0 - - - - - - -
02/07:00am 30.2 E 9 11 1010.2 - 0.0 - - - - - - -
02/06:30am 28.9 E 7 9 1010.0 - 0.0 - - - - - - -
02/06:00am 27.8 ENE 6 7 1009.4 - 0.0 - - - - - - -
02/05:30am 28.1 ENE 9 11 1009.0 - 0.0 - - - - - - -
02/05:00am 27.9 ENE 7 9 1008.8 - 0.0 - - - - - - -
02/04:30am 27.8 ENE 6 8 1008.8 - 0.0 - - - - - - -
02/04:00am 28.0 ENE 7 9 1008.5 - 0.0 - - - - - - -

Other Formats:

Comma delimited format used in spreadsheet applications
http://www.bom.gov.au/fwo/IDD60701/IDD60701.94147.axf

JavaScript Object Notation format (JSON) in row-major order
http://www.bom.gov.au/fwo/IDD60701/IDD60701.94147.json